Airport Information

KALW - Walla Walla Regional Airport

KALW 251053Z AUTO 15004KT 10SM CLR 11/00 A3013 RMK AO2 SLP203 T01060000


  • General Information

  • Coordinates: N 46°5'41"/ W 118°17'16"
  • Location: N/A
  • Surveyed Elevation: 1191 MSL

Operations

Flow Name Active Runways Conditions

Green background denotes normal operations.


Common Frequencies

Callsign Frequency Position Name

More at the Document Center


Charts